FW7258 Weather Reports


time (UTC)temp
C
wind
direction
speed
KPH
gust
KPH
rain 1hr
cm
rain 24hr
cm
rain mn
cm
humidity
%
barometer
mb
20260506124231 7 337 6.4 9.7 0.00 2.87 1.19 83 1010.3
20260506124150 7 314 3.2 11.3 0.00 2.87 1.19 83 1010.3
20260506123131 7 360 9.7 14.5 0.00 2.87 1.19 84 1010.4
20260506122132 7 360 4.8 9.7 0.00 2.87 1.19 83 1010.4
20260506121132 7 341 3.2 4.8 0.00 2.87 1.19 83 1010.2
20260506120133 7 354 4.8 9.7 0.00 2.87 1.19 83 1010.1
20260506115231 7 328 6.4 9.7 0.00 2.87 1.19 84 1010.4
20260506114248 8 302 6.4 8.0 0.00 2.87 1.19 84 1010.1
20260506113233 7 4 4.8 6.4 0.00 2.87 1.19 84 1009.8
20260506112330 8 5 4.8 8.0 0.00 2.87 1.19 83 1009.8
20260506111332 7 340 0.0 0.0 0.03 2.87 1.19 83 1009.9
20260506110349 7 356 4.8 8.0 0.03 2.87 1.19 84 1009.5
20260506104334 7 15 6.4 9.7 0.05 2.87 1.19 84 1008.8
20260506103432 7 3 6.4 8.0 0.08 2.87 1.19 84 1008.7
20260506102432 7 7 3.2 6.4 0.10 2.87 1.19 84 1008.4
20260506101431 7 14 6.4 9.7 0.10 2.84 1.17 83 1008.2
20260506100433 7 20 6.4 9.7 0.10 2.84 1.17 84 1008.8
20260506095432 7 22 4.8 6.4 0.10 2.84 1.14 84 1009.2
20260506094432 7 1 4.8 9.7 0.10 2.82 1.14 84 1009.4
20260506093433 7 22 8.0 9.7 0.08 2.79 1.12 84 1009.1
20260506093333 7 20 4.8 6.4 0.08 2.79 1.12 83 1009.1
20260506092332 7 13 8.0 9.7 0.10 2.77 1.07 84 1009.1
20260506091348 7 2 4.8 8.0 0.13 2.74 1.07 84 1009.3
20260506090349 7 4 9.7 14.5 0.18 2.74 1.07 83 1008.8
20260506084332 7 355 9.7 12.9 0.28 2.72 1.04 83 1008.8
20260506083333 7 25 8.0 11.3 0.33 2.72 1.02 84 1008.7
20260506082332 7 21 3.2 6.4 0.33 2.67 0.99 84 1009.1
20260506080530 7 351 11.3 16.1 0.33 2.57 0.89 84 1008.8
20260506072731 8 7 8.0 12.9 0.28 2.34 0.66 84 1008.4
20260506071732 8 340 4.8 12.9 0.25 2.29 0.61 83 1008.5
20260506070731 8 14 6.4 6.4 0.28 2.26 0.58 84 1008.4
20260506061831 8 21 8.0 9.7 0.15 2.03 0.36 84 1008.7
20260506060832 8 7 8.0 9.7 0.13 1.98 0.30 84 1008.8
20260506043034 9 10 4.8 6.4 0.20 1.78 0.10 83 1009.7
20260506042033 9 4 8.0 11.3 0.20 1.75 0.05 84 1009.8
20260506041033 9 8 6.4 8.0 0.18 1.70 0.03 84 1009.8
20260506040044 10 26 9.7 14.5 0.18 1.68 0.00 84 1009.8
20260506035133 10 24 8.0 12.9 0.23 1.65 1.65 84 1009.9
20260506033234 10 58 6.4 8.0 0.23 1.57 1.57 83 1009.9
20260506033134 10 37 4.8 6.4 0.23 1.57 1.57 83 1010.1
20260506031233 10 18 3.2 6.4 0.41 1.52 1.52 83 1010.3
20260506030250 10 22 1.6 1.6 0.43 1.50 1.50 83 1010.9
20260506030133 10 360 0.0 3.2 0.43 1.50 1.50 83 1011.0
20260506025232 10 297 3.2 6.4 0.36 1.42 1.42 82 1011.0
20260506024251 10 2 3.2 6.4 0.36 1.37 1.37 84 1010.5
20260506023335 10 360 4.8 6.4 0.48 1.35 1.35 83 1010.0
20260506023234 10 345 4.8 6.4 0.48 1.35 1.35 84 1010.0
20260506022234 10 8 6.4 9.7 0.36 1.22 1.22 83 1009.9
20260506021235 10 356 4.8 6.4 0.30 1.12 1.12 83 1010.1
20260506020233 10 12 4.8 8.0 0.28 1.07 1.07 84 1009.9
20260506015233 10 13 11.3 12.9 0.30 1.07 1.07 83 1009.6
20260506014232 10 356 4.8 8.0 0.25 1.02 1.02 83 1009.7
20260506013251 10 360 3.2 4.8 0.10 0.86 0.86 83 1009.7
20260506012334 10 5 3.2 6.4 0.10 0.86 0.86 82 1009.6
20260506005433 11 6 3.2 8.0 0.10 0.76 0.76 83 1009.5
20260506003434 11 345 4.8 6.4 0.25 0.76 0.76 83 1009.3
20260506002435 11 337 3.2 8.0 0.61 0.76 0.76 83 1009.4
20260506001433 11 359 6.4 9.7 0.76 0.76 0.76 83 1009.4
20260506000434 11 22 4.8 6.4 0.71 0.71 0.71 82 1009.3
20260505235531 11 22 3.2 4.8 0.69 0.69 0.66 82 1009.6
20260505234535 11 9 3.2 6.4 0.61 0.61 0.61 81 1009.8
20260505232534 12 338 9.7 16.1 0.20 0.20 0.15 79 1010.0
20260505231536 13 355 9.7 12.9 0.00 0.00 0.00 78 1008.9
20260505230535 15 360 6.4 8.0 0.00 0.00 0.00 79 1008.9
20260505224537 15 315 4.8 8.0 0.00 0.00 0.00 78 1009.0
20260505223533 15 315 3.2 4.8 0.00 0.00 0.00 78 1009.1
20260505222534 15 21 3.2 6.4 0.00 0.00 0.00 78 1009.2
20260505221534 15 339 3.2 4.8 0.00 0.00 0.00 78 1009.3
20260505215634 15 322 3.2 8.0 0.00 0.00 0.00 77 1009.3
20260505214634 15 19 4.8 9.7 0.00 0.00 0.00 77 1009.3
20260505213732 16 304 3.2 6.4 0.00 0.00 0.00 75 1009.3
20260505212831 16 339 9.7 16.1 0.00 0.00 0.00 74 1009.2
20260505212732 16 322 11.3 16.1 0.00 0.00 0.00 73 1009.3
20260505211734 16 315 0.0 1.6 0.00 0.00 0.00 73 1009.0
20260505210734 17 225 0.0 0.0 0.00 0.00 0.00 70 1009.0
20260505205734 17 325 0.0 1.6 0.00 0.00 0.00 67 1009.0
20260505204750 18 244 4.8 11.3 0.00 0.00 0.00 64 1009.3
20260505203832 18 338 0.0 1.6 0.00 0.00 0.00 63 1008.7
20260505202848 18 247 0.0 0.0 0.00 0.00 0.00 63 1008.8
20260505201933 18 292 0.0 3.2 0.00 0.00 0.00 62 1008.7
20260505200933 18 180 1.6 1.6 0.00 0.00 0.00 62 1008.7
20260505195932 18 202 0.0 1.6 0.00 0.00 0.00 62 1008.8
20260505194934 18 266 1.6 8.0 0.00 0.00 0.00 62 1009.0
20260505194032 18 208 4.8 9.7 0.00 0.00 0.00 61 1009.0
20260505193051 18 76 0.0 4.8 0.00 0.00 0.00 61 1009.0
20260505192033 18 261 1.6 4.8 0.00 0.00 0.00 62 1009.2
20260505191035 18 231 3.2 8.0 0.00 0.00 0.00 62 1009.3
20260505190050 18 177 3.2 8.0 0.00 0.00 0.00 62 1009.7
20260505185148 18 228 4.8 12.9 0.00 0.00 0.00 62 1009.8
20260505184234 18 278 3.2 8.0 0.00 0.00 0.00 60 1010.0
20260505183331 18 174 6.4 12.9 0.00 0.00 0.00 60 1009.9
20260505182336 18 226 6.4 14.5 0.00 0.00 0.00 59 1009.7
20260505181331 18 296 1.6 4.8 0.00 0.00 0.00 58 1009.4
20260505180333 19 288 3.2 8.0 0.00 0.00 0.00 57 1009.4
20260505174334 19 277 4.8 8.0 0.00 0.00 0.00 56 1009.2
20260505173334 19 274 3.2 6.4 0.00 0.00 0.00 56 1009.1
20260505172433 19 304 4.8 14.5 0.00 0.00 0.00 58 1009.1
20260505171432 19 223 3.2 11.3 0.00 0.00 0.00 58 1009.0
20260505171334 19 175 4.8 8.0 0.00 0.00 0.00 58 1009.0
20260505170334 19 220 6.4 11.3 0.00 0.00 0.00 57 1009.0
20260505165348 20 204 6.4 8.0 0.00 0.00 0.00 55 1009.0
20260505164332 20 226 6.4 9.7 0.00 0.00 0.00 55 1008.9
20260505164233 20 187 8.0 14.5 0.00 0.00 0.00 55 1008.8
20260505163234 20 218 9.7 20.9 0.00 0.00 0.00 54 1008.8
20260505162332 20 176 14.5 24.1 0.00 0.00 0.00 55 1008.6
20260505161431 20 201 4.8 9.7 0.00 0.00 0.00 54 1008.6
20260505160434 20 234 6.4 12.9 0.00 0.00 0.00 55 1008.5
20260505152531 18 277 4.8 12.9 0.00 0.00 0.00 56 1008.8
20260505151533 19 238 14.5 33.8 0.00 0.00 0.00 56 1008.6
20260505150533 18 233 4.8 8.0 0.00 0.00 0.00 56 1008.6
20260505125032 16 177 6.4 8.0 0.00 0.00 0.00 66 1008.5